Location: William D. McDowell Observatory
(40.7857°N, 74.1054°W)
Time: 08:09:45
(UTC-04:00)

OTV 5 (USA 277) - Visible Passes

Search period start: 23 September 2018 00:00
Search period end: 03 October 2018 00:00
Orbit: 387 x 394 km, 54.5° (Epoch: 08 September)

Date Brightness Start Highest point End Pass type
(mag) Time Alt. Az. Time Alt. Az. Time Alt. Az.
24 Sep ? 05:58:56 10° SSE 06:00:31 13° SE 06:02:06 10° E visible
26 Sep ? 05:40:50 10° S 05:43:32 25° SE 05:46:15 10° ENE visible
27 Sep ? 04:46:29 10° SE 04:47:26 11° SE 04:48:30 10° ESE visible
27 Sep ? 06:19:46 10° WSW 06:22:57 62° NW 06:26:07 10° NE visible
28 Sep ? 05:25:17 29° SSW 05:26:38 53° SE 05:29:45 10° ENE visible
29 Sep ? 04:31:32 18° E 04:31:32 18° E 04:32:59 10° ENE visible
29 Sep ? 06:03:56 15° W 06:06:13 33° NW 06:09:10 10° NNE visible
30 Sep ? 05:10:04 66° N 05:10:04 66° N 05:12:59 10° NE visible
01 Oct ? 04:16:05 13° ENE 04:16:05 13° ENE 04:16:34 10° ENE visible
01 Oct ? 05:48:29 18° WNW 05:49:33 21° NNW 05:52:05 10° NNE visible
02 Oct ? 04:54:26 24° NNE 04:54:26 24° NNE 04:56:03 10° NE visible
